[Date Prev][Date Next][Thread Prev][Thread Next] - [Date Index][Thread Index][Author Index]
2 Line ISS Keps 9-21
- Subject: [sarex] 2 Line ISS Keps 9-21
- From: "Dave Larsen PhD" <doc@xxxxxxxxxxx>
- Date: Thu, 21 Sep 2006 10:27:37 -0700
ISS
1 25544U 98067A 06264.67638889 .00017997 00000-0 11679-3 0 7148
2 25544 051.6356 050.4133 0011971 010.8612 024.2832 15.75999264448386
----
Sent via sarex@amsat.org. Opinions expressed are those of the author.
Not an AMSAT member? Join now to support the amateur satellite program!
Subscription settings: http://amsat.org/mailman/listinfo/sarex
AMSAT Home